SCP
0 0 0 0 0 0 0 0 0 0 0 0 0 0 1 0 0 0 0 0 0 0 0 0 0 0 0 0 0 0 0 0 0 0 0 0 0 0
0 0 0 0 0 0 0 0 0 0 0 0 0 1 1 0 0 0 0 0 0 0 0 0 0 0 0 0 0 0 0 0 0 0 0 0 0 0
0 0 0 0 0 0 0 0 0 0 0 0 1 1 1 1 1 1 0 0 0 0 0 0 0 0 0 0 0 0 0 0 0 0 0 0 0 0
0 0 0 0 0 0 0 0 0 0 0 0 0 1 1 1 1 1 0 0 0 0 0 0 0 0 0 0 0 0 0 0 0 0 0 0 0 0
0 0 0 0 0 0 0 0 0 0 0 0 0 0 1 1 1 1 0 0 0 0 0 0 0 0 0 0 0 0 0 0 0 0 0 0 0 0
0 0 0 0 0 0 0 0 0 0 0 0 0 0 0 0 0 0 0 0 0 0 0 0 0 0 0 0 0 0 0 0 0 0 0 0 0 0
0 0 0 0 0 0 0 0 0 0 0 0 0 0 0 0 0 0 0 0 0 0 0 0 0 0 0 0 0 0 0 0 0 0 0 0 0 0
0 0 0 0 0 0 0 0 0 0 0 0 0 0 0 0 0 0 0 0 0 0 0 0 0 0 0 0 0 0 0 0 0 0 0 0 0 0
0 0 0 0 0 0 0 0 0 0 0 0 0 0 0 0 0 0 0 0 0 0 0 0 0 0 0 0 0 0 0 0 0 0 0 0 0 0
0 0 0 0 0 0 0 0 0 0 0 0 0 0 0 0 0 0 0 0 0 0 0 0 0 0 0 0 0 0 0 0 0 0 0 0 0 0
0 0 0 0 0 0 0 0 0 0 0 0 0 0 0 0 0 0 0 0 0 0 0 0 0 0 0 0 0 0 0 0 0 0 0 0 0 0
0 0 0 0 0 0 0 0 0 0 0 0 0 0 0 0 0 0 0 0 0 0 0 0 0 0 0 0 0 0 0 0 0 0 0 0 0 0
0 0 0 0 0 0 0 0 0 0 0 0 0 0 0 0 0 0 0 0 0 0 0 0 0 0 0 0 0 0 0 0 0 0 0 0 0 0
0 0 0 0 0 0 0 0 0 0 0 0 0 0 0 0 0 0 0 0 0 0 0 0 0 0 0 0 0 0 0 0 0 0 0 0 0 0
0 0 0 0 0 0 0 0 0 0 0 0 0 0 0 0 0 0 0 0 0 0 0 0 0 0 0 0 0 0 0 0 0 0 0 0 0 0
0 0 0 0 0 0 0 0 0 0 0 0 0 0 0 0 0 0 0 0 0 0 0 0 0 0 0 0 0 0 0 0 0 0 0 0 0 0
0 0 0 0 0 0 0 0 0 0 0 0 0 0 0 0 0 0 0 0 0 0 0 0 0 0 0 0 0 0 0 0 0 0 0 0 0 0
0 0 0 0 0 0 0 0 0 0 0 0 0 0 0 0 0 0 0 0 0 0 0 0 0 0 0 0 0 0 0 0 0 0 0 0 0 0
0 0 0 0 0 0 0 0 0 0 0 0 0 0 0 0 0 0 0 0 0 0 0 0 0 0 0 0 0 0 0 0 0 0 0 0 0 0
0 0 0 0 0 0 0 0 0 0 0 0 0 0 0 0 0 0 0 0 0 0 0 0 0 0 0 0 0 0 0 0 0 0 0 0 0 0
0 0 0 0 0 0 0 0 0 0 0 0 0 0 0 0 0 0 0 0 0 0 0 0 0 0 0 0 0 0 0 0 0 0 0 0 0 0
0 0 0 0 0 0 0 0 0 0 0 0 0 0 0 0 0 0 0 0 0 0 0 0 0 0 0 0 0 0 0 0 0 0 0 0 0 0
0 0 0 0 0 0 0 0 0 0 0 0 0 0 0 0 0 0 0 0 0 0 0 0 0 0 0 0 0 0 0 0 0 0 0 0 0 0
Wind_Speed
3 2 2 2 2 2 2 1 1 2 2 2 1 3 3 4 8 7 5 12 14 13 13 13 12 12 12 12 11 11 11 11 11 11 11 12 12 13
2 2 1 2 2 2 1 2 1 1 2 1 1 0 1 3 8 5 4 9 14 14 14 14 14 14 13 13 13 13 13 12 12 12 12 12 12 13
2 2 1 2 2 3 2 2 2 2 2 3 2 1 1 0 2 2 3 4 7 14 15 15 15 15 14 14 14 14 13 13 13 13 13 13 13 14
2 1 1 1 1 2 3 3 3 2 2 3 3 2 1 1 2 3 4 6 4 10 16 16 16 15 15 15 15 15 15 15 14 14 14 14 14 14
0 0 1 2 2 2 2 3 3 3 2 2 4 3 2 2 2 4 5 4 7 7 8 12 13 14 15 16 16 16 16 15 15 15 15 15 14 14
3 4 4 4 3 4 3 4 4 4 4 3 3 3 3 3 2 3 4 3 4 7 6 6 10 14 16 16 15 15 15 15 15 15 15 15 15 15
4 5 6 7 7 5 4 4 4 4 4 4 4 4 3 4 3 3 4 4 4 4 4 5 4 4 6 10 13 15 15 15 15 15 15 15 15 15
4 4 4 7 7 6 6 5 4 3 3 3 3 4 5 4 4 5 4 4 4 3 4 6 6 5 5 5 9 12 13 13 14 14 14 15 15 15
5 5 5 8 9 7 5 4 3 1 2 2 3 4 4 4 4 5 5 5 6 6 6 8 6 7 6 8 9 9 11 12 13 13 14 14 15 15
6 6 7 7 8 8 6 6 5 4 3 2 3 4 4 3 3 4 6 6 7 7 6 7 6 6 7 5 9 10 10 11 12 12 13 14 15 16
6 7 7 7 9 10 6 6 6 5 6 6 6 7 9 10 7 4 5 5 6 5 4 4 5 5 5 5 7 11 11 11 11 13 14 15 16 15
5 7 11 8 7 8 6 5 5 6 8 9 8 8 8 8 9 6 4 5 5 5 4 5 6 6 6 4 5 6 7 9 12 13 14 15 15 10
3 4 4 5 5 5 5 4 4 6 7 7 6 5 4 3 3 2 2 3 5 6 6 5 6 7 7 7 6 6 6 6 6 8 11 14 15 11
5 4 3 5 7 7 5 5 8 8 6 5 5 5 5 6 6 6 5 5 5 6 7 6 6 6 8 9 8 6 6 6 6 7 7 10 12 14
5 6 7 9 9 6 4 6 6 4 5 5 5 5 6 6 6 5 6 6 6 7 7 6 6 6 6 8 8 8 8 7 6 7 7 7 7 7
7 9 10 7 5 5 4 2 2 3 4 5 5 5 5 6 6 6 7 7 7 7 7 8 7 7 7 8 8 9 8 8 7 7 8 8 7 7
8 6 4 3 4 4 4 4 4 5 6 6 6 6 6 6 6 6 6 7 8 8 8 6 7 7 8 9 10 9 9 8 8 7 8 9 8 8
6 5 4 5 6 6 6 6 5 6 6 6 6 6 6 7 7 7 7 7 7 8 8 8 9 9 9 8 8 9 8 8 8 8 9 10 10 8
4 3 5 5 5 6 6 6 6 6 5 6 6 6 6 7 7 7 8 7 7 8 8 8 8 9 11 11 8 8 10 11 11 10 9 9 11 10
3 5 5 5 5 5 6 6 6 6 6 6 6 6 6 7 7 8 8 9 9 9 9 9 8 8 9 11 12 13 14 12 10 11 11 11 11 13
6 6 6 6 5 5 5 5 6 6 6 6 6 6 7 7 7 8 8 10 9 9 10 9 9 13 10 9 10 10 11 12 13 12 12 13 13 12
6 6 5 5 5 4 5 5 6 6 7 6 7 7 8 8 9 10 9 9 8 9 10 10 10 10 9 10 12 13 14 13 13 17 18 17 11 10
5 5 5 5 5 5 5 6 7 6 6 7 8 8 9 9 8 9 9 9 9 10 10 10 9 9 10 10 11 11 15 15 12 11 11 14 16 19
Wind_Direction
244 226 256 286 285 307 324 332 304 297 284 239 199 188 172 149 160 188 189 197 204 210 214 219 223 226 227 229 231 233 235 238 241 243 246 249 252 255
256 289 264 304 320 310 309 312 301 282 287 299 269 208 151 174 171 202 215 198 207 214 218 222 224 226 228 230 232 235 237 239 240 242 243 245 248 251
253 250 250 287 323 331 325 310 301 305 284 291 298 332 129 184 155 229 238 211 213 219 223 224 225 227 230 232 234 236 238 240 241 243 244 245 246 248
246 266 269 264 265 311 327 330 331 328 312 303 314 330 325 265 234 246 262 260 249 227 222 224 225 228 232 234 236 237 239 240 242 243 244 245 247 249
344 2 357 -0 349 341 329 332 330 325 333 308 298 303 297 293 290 274 276 285 288 282 238 230 234 238 240 240 239 239 241 242 243 243 244 245 246 248
48 50 43 41 21 353 353 356 341 332 324 308 296 295 294 302 301 288 288 287 286 289 292 262 242 239 241 243 245 246 246 246 246 248 248 247 247 247
62 61 61 61 52 35 24 11 359 349 337 329 319 320 330 342 334 323 309 310 297 292 304 298 283 264 250 248 250 251 250 248 247 247 248 248 248 248
73 74 80 61 48 44 37 30 20 355 349 337 328 333 335 342 344 331 327 323 308 323 335 310 306 295 281 264 250 247 247 247 247 247 247 248 249 249
62 51 48 53 37 22 11 6 11 350 284 308 314 322 324 348 349 332 324 313 296 300 301 288 283 281 277 282 281 270 257 254 252 251 251 251 252 252
71 68 71 57 35 15 4 7 355 352 325 292 318 319 320 328 309 293 288 287 274 269 258 270 274 273 281 287 294 290 277 269 263 258 256 255 256 256
78 65 70 66 36 18 10 0 353 348 346 346 313 287 280 276 269 285 291 298 299 301 312 308 311 313 306 302 297 298 292 280 272 266 263 261 259 261
91 83 68 62 39 23 9 353 348 345 336 324 310 290 276 268 254 238 267 293 303 304 328 336 323 324 308 297 308 315 311 295 281 272 268 265 264 265
45 80 72 41 16 359 339 322 324 318 309 300 299 308 320 324 332 321 303 307 309 305 315 324 314 309 297 300 304 300 301 303 301 289 278 272 268 259
23 33 22 336 324 312 305 302 312 313 302 314 329 340 348 353 350 342 328 312 294 289 288 291 290 293 296 296 298 297 297 296 294 291 287 284 275 265
3 346 317 299 302 299 270 290 307 317 337 342 342 346 348 343 334 328 326 319 310 304 308 310 302 296 292 294 297 297 299 293 287 288 288 285 282 278
356 322 304 288 281 302 323 317 322 349 352 347 344 342 340 337 336 337 332 329 321 315 315 317 315 311 305 299 295 294 291 289 289 288 292 291 288 282
332 310 328 10 13 12 10 15 11 8 5 357 348 343 341 337 333 333 328 325 320 318 319 320 317 311 302 296 293 291 294 294 296 298 299 296 289 284
331 329 359 15 12 8 3 2 6 8 359 345 340 339 337 333 329 327 323 320 319 318 318 319 318 313 306 292 280 293 297 298 299 297 295 291 289 285
316 344 16 16 11 8 5 1 358 356 349 343 341 338 334 329 326 324 322 319 317 315 312 312 310 308 307 305 304 306 305 301 296 291 287 286 287 286
9 18 17 12 11 9 4 358 349 345 345 339 332 332 332 328 323 321 319 318 317 313 310 308 307 308 308 304 300 297 288 285 291 292 292 288 283 280
19 15 11 5 4 5 2 353 346 341 339 335 336 339 333 326 320 318 314 314 312 308 307 306 302 302 296 291 288 289 293 290 284 285 290 291 291 291
15 9 3 357 1 5 360 355 345 340 341 343 342 336 330 324 317 314 311 309 306 304 303 301 301 301 298 294 294 297 300 301 294 285 278 272 276 282
11 4 354 354 6 5 358 345 342 345 350 347 338 328 321 316 312 309 307 304 302 302 302 302 303 301 297 294 295 297 301 304 305 305 299 294 285 273